Location: Bílinka
(49.3579°N, 14.3767°E)
Time: 10:34:52
(UTC+00:00)

Cosmos 2237 - Visible Passes

Search period start: 28 September 2023 00:00
Search period end: 08 October 2023 00:00
Orbit: 844 x 857 km, 70.8° (Epoch: 27 September)

Date Brightness Start Highest point End Pass type
(mag) Time Alt. Az. Time Alt. Az. Time Alt. Az.
28 Sep 5.5 01:31:37 10° NNW 01:34:26 30° NNW 01:34:26 30° NNW visible
28 Sep 6.4 18:14:25 10° W 18:19:11 26° NW 18:23:58 10° NNE visible
28 Sep 6.5 23:35:38 10° N 23:39:04 20° NNE 23:39:04 20° NNE visible
29 Sep 6.1 01:19:20 10° NNW 01:20:59 20° NNW 01:20:59 20° NNW visible
29 Sep 6.3 18:02:09 10° W 18:06:54 26° NW 18:11:41 10° NNE visible
29 Sep 6.6 23:23:21 10° N 23:26:02 19° NNE 23:26:02 19° NNE visible
30 Sep 6.5 01:07:03 10° NNW 01:07:58 15° NNW 01:07:58 15° NNW visible
30 Sep 6.3 17:49:51 10° W 17:54:36 26° NW 17:59:24 10° NNE visible
30 Sep 6.7 23:11:03 10° N 23:13:14 17° N 23:13:14 17° N visible
01 Oct 6.7 00:54:45 10° NNW 00:55:11 12° NNW 00:55:11 12° NNW visible
01 Oct 6.3 17:37:34 10° W 17:42:19 26° NW 17:47:06 10° NNE visible
01 Oct 6.7 22:58:46 10° N 23:00:36 16° N 23:00:36 16° N visible
02 Oct 6.8 00:42:28 10° NNW 00:42:34 10° NNW 00:42:34 10° NNW visible
02 Oct 6.3 17:25:16 10° W 17:30:01 26° NW 17:34:49 10° NNE visible
02 Oct 6.8 22:46:28 10° N 22:48:04 15° N 22:48:04 15° N visible
03 Oct 6.3 17:12:59 10° W 17:17:44 26° NW 17:22:32 10° NNE visible
03 Oct 6.8 22:34:11 10° N 22:35:36 15° N 22:35:36 15° N visible
04 Oct 6.3 17:00:41 10° W 17:05:27 26° NW 17:10:14 10° NNE visible
04 Oct 6.8 22:21:54 10° N 22:23:11 14° N 22:23:11 14° N visible
05 Oct 6.9 22:09:37 10° N 22:10:49 14° N 22:10:49 14° N visible
06 Oct 6.9 21:57:19 10° N 21:58:30 14° N 21:58:30 14° N visible
07 Oct 6.8 21:45:02 10° N 21:46:11 14° N 21:46:11 14° N visible
